x

8452944 - Conimicut Light, Ri (cptr1) Weather Station

5:54 - Fri 18th Aug 2017 All times are EDT. -4 hours from GMT.

  • Wind
    11mph, 14mph gusts
  • Sea Temp 72°f
  • Aire Temp 69°f
  • Sea Pressure 1014.6mb
  • 8452944 - Conimicut Light, Ri
  • 8452944 - Conimicut Light, Ri

More Historic Weather Station data

Upgrade to MSW Pro to gain access to the past 30 days of data for over 8000 Wavebouys and Weather Stations around the globe.

Join

Comparision Forecast

View Surf forecast
   
vie 08/18 5:54 11 14 mph 1014.6mb 72f 69f
5:48 13 14 mph 1014.5mb 72f 69f
5:42 14 14 mph 1014.4mb 72f 69f
5:36 11 14 mph 1014.3mb 72f 69f
5:30 11 13 mph 1014.4mb 72f 69f
5:24 11 13 mph 1014.4mb 72f 69f
5:18 10 13 mph 1014.3mb 72f 69f
5:12 11 13 mph 1014.3mb 72f 69f
5:06 11 14 mph 1014.4mb 72f 69f
5:00 11 13 mph 1014.2mb 72f 69f
4:54 10 11 mph 1014.1mb 72f 69f
4:48 9 11 mph 1014.1mb 72f 69f
4:42 11 13 mph 1014.1mb 72f 69f
4:36 11 13 mph 1014.1mb 72f 69f
4:30 11 13 mph 1014.2mb 72f 69f
4:24 11 13 mph 1014.2mb 72f 69f
4:18 11 13 mph 1014.3mb 72f 69f
4:12 10 10 mph 1014.3mb 72f 69f
4:06 9 11 mph 1014.4mb 72f 69f
4:00 10 11 mph 1014.4mb 72f 69f
3:54 9 10 mph 1014.6mb 72f 69f
3:48 8 9 mph 1014.7mb 72f 69f
3:42 8 9 mph 1014.8mb 72f 69f
3:36 7 9 mph 1014.7mb 72f 69f
3:30 6 7 mph 1014.7mb 72f 69f
3:24 7 7 mph 1014.7mb 72f 69f
3:18 7 8 mph 1014.8mb 72f 69f
3:12 7 10 mph 1014.7mb 72f 69f
3:06 8 9 mph 1014.8mb 72f 69f
3:00 5 9 mph 1014.9mb 72f 68f
2:42 1 2 mph 1015.1mb - -
2:36 2 5 mph 1015.1mb - -
2:30 5 6 mph 1015.2mb 72f 68f
2:24 3 6 mph 1015.3mb 72f 68f
2:18 5 6 mph 1015.3mb 73f 68f
2:12 5 5 mph 1015.3mb 73f 68f
2:06 3 5 mph 1015.3mb 73f 68f
2:00 5 5 mph 1015.4mb 73f 68f
1:54 5 6 mph 1015.4mb 73f 68f
1:48 5 6 mph 1015.4mb 73f 68f
1:42 5 6 mph 1015.4mb 73f -
1:36 5 6 mph 1015.5mb 73f -
1:30 6 8 mph 1015.6mb 73f 68f
1:24 6 7 mph 1015.6mb 73f 68f
1:18 6 7 mph 1015.6mb 73f 68f
1:12 7 7 mph 1015.7mb 73f 68f
1:06 7 8 mph 1015.7mb 73f 68f
1:00 7 9 mph 1015.7mb 73f 68f
12:54 7 8 mph 1015.8mb 73f 67f
12:48 6 8 mph 1015.8mb 73f 68f
12:42 7 8 mph 1015.9mb 73f 68f
12:36 7 9 mph 1016mb 73f 68f
12:30 8 9 mph 1016mb 73f 68f
12:24 7 8 mph 1016.1mb 73f 68f
12:18 7 8 mph 1016.2mb 73f 68f
12:12 5 6 mph 1016.2mb 73f 68f
12:06 6 6 mph 1016.2mb 73f 68f
12:00 5 6 mph 1016.1mb 73f 68f
jue 08/17 11:42 7 9 mph 1016.1mb 73f 68f
11:36 8 9 mph 1016mb 73f 68f
11:30 8 9 mph 1016.1mb 73f 68f
11:24 8 9 mph 1016.1mb 73f 69f
11:18 7 9 mph 1016.1mb 73f 69f
11:12 6 7 mph 1016.2mb 73f 68f
11:06 5 7 mph 1016.1mb 73f 68f
11:00 6 8 mph 1016.1mb 73f 68f
10:54 6 8 mph 1016.1mb 73f 69f
10:48 7 10 mph 1016.2mb 73f 69f
10:42 8 10 mph 1016.2mb 73f 69f
10:36 10 13 mph 1016.1mb 73f 69f
10:30 10 13 mph 1016.2mb 73f 69f
10:24 10 13 mph 1016.1mb 73f 69f
10:18 9 11 mph 1016.2mb - -
10:12 8 11 mph 1016mb 73f 70f
10:06 10 10 mph 1016mb 73f 70f
10:00 10 11 mph 1016mb 73f 69f
9:30 11 13 mph 1016.1mb 72f 70f
9:24 11 14 mph 1016.1mb 72f 70f
9:18 13 14 mph - - -
9:12 10 13 mph 1016mb 72f 70f
9:06 10 11 mph 1016mb 72f 70f
9:00 9 11 mph 1015.9mb 72f 70f
8:54 10 11 mph 1015.9mb 72f 70f
8:48 10 13 mph 1015.9mb 72f 70f
8:42 11 13 mph 1015.9mb 72f 70f
8:36 11 13 mph 1015.8mb 72f 70f
8:30 11 13 mph 1015.7mb 72f 70f
8:24 11 13 mph 1015.7mb 72f 70f
8:18 10 13 mph - - -
8:12 10 13 mph 1015.7mb 72f 71f
8:06 11 15 mph 1015.7mb 72f 71f
8:00 11 14 mph 1015.6mb 72f 71f
7:54 14 15 mph 1015.5mb 72f 71f
7:48 14 16 mph 1015.5mb 72f 71f
7:42 15 17 mph 1015.3mb 72f 71f
7:36 15 17 mph 1015.4mb 72f 71f
7:30 16 18 mph 1015.4mb 72f 71f
7:24 16 17 mph 1015.3mb 72f 71f
7:18 14 16 mph - - -
7:12 14 16 mph 1015.2mb 72f 71f
7:06 14 16 mph 1015.2mb 72f 71f
7:00 16 16 mph 1015.1mb 72f 71f
6:54 14 16 mph 1015.2mb 72f 71f
6:48 14 16 mph 1015.2mb - -
6:42 15 17 mph 1015.2mb 72f 71f
6:36 16 17 mph 1015.2mb 71f 71f
6:30 15 17 mph 1015.3mb 71f 71f
6:24 16 17 mph 1015.3mb 72f 71f
6:18 16 17 mph - - -
6:12 17 18 mph 1015.2mb 72f 72f
6:06 16 17 mph 1015.2mb 72f 72f
6:00 16 17 mph 1015.1mb 72f 72f
5:54 16 18 mph 1015.2mb 72f 73f
5:48 16 20 mph 1015.2mb - -
5:42 18 20 mph 1015.2mb 71f 72f
5:36 17 18 mph 1015.2mb 72f 73f
5:30 17 20 mph 1015.2mb 72f 73f
5:24 17 18 mph 1015.2mb 72f 73f
5:18 17 20 mph 1015.2mb 72f 73f
5:12 17 21 mph 1015.2mb 72f 73f
5:06 18 20 mph 1015.2mb 72f 73f
5:00 17 20 mph 1015.2mb 72f 73f
4:54 17 18 mph 1015.2mb 72f 73f
4:48 16 17 mph 1015.2mb 72f 73f
4:42 15 17 mph 1015.2mb 72f 73f
4:36 14 16 mph 1015.3mb 72f 73f
4:30 15 16 mph 1015.4mb 71f 73f
4:24 15 16 mph 1015.4mb 71f 73f
4:18 15 17 mph 1015.3mb 72f 73f
4:12 17 18 mph 1015.4mb 72f 73f
4:06 18 20 mph 1015.4mb 72f 73f
4:00 18 20 mph 1015.4mb 72f 73f
3:54 18 18 mph 1015.3mb 72f 72f
3:48 17 18 mph 1015.4mb 73f 72f
3:42 16 17 mph 1015.4mb 73f 73f
3:36 16 17 mph 1015.4mb 73f 73f
3:30 17 18 mph 1015.5mb 73f 73f
3:24 17 20 mph 1015.5mb 73f 73f
3:18 16 18 mph 1015.5mb 73f 73f
3:12 13 15 mph 1015.6mb 73f 74f
3:06 9 9 mph 1015.6mb 73f 75f
3:00 9 9 mph 1015.6mb 73f 75f
2:54 8 9 mph 1015.7mb 73f 74f
2:48 9 9 mph 1015.8mb 73f 74f
2:42 8 9 mph 1015.9mb 72f 75f
2:36 8 8 mph 1016.1mb 71f 74f
2:30 7 8 mph 1016.1mb 71f 74f
2:24 8 9 mph 1016.2mb 71f 74f
2:18 7 8 mph 1016.2mb 71f 74f
2:12 7 8 mph 1016.3mb 71f 73f
2:06 6 7 mph 1016.5mb 71f 73f
2:00 7 8 mph 1016.6mb 71f 73f
1:54 7 8 mph 1016.7mb 71f 73f
1:48 7 7 mph 1016.8mb 71f 73f
1:42 6 7 mph 1016.8mb 71f 73f
1:36 7 8 mph 1016.8mb 71f 73f
1:30 7 8 mph 1016.8mb 71f 73f
1:24 7 8 mph 1016.9mb 71f 73f
1:18 7 8 mph 1017mb 71f 73f
1:12 7 8 mph 1017mb 71f 73f
1:06 7 7 mph 1017.1mb 71f 72f
1:00 7 8 mph 1017.1mb 71f 72f
12:54 8 8 mph 1017.2mb 71f 72f
12:48 8 9 mph 1017.3mb 73f 72f
12:42 6 7 mph 1017.3mb 73f 72f
12:36 3 5 mph 1017.2mb 73f 72f
12:30 3 6 mph 1017.3mb 73f 72f
12:24 6 7 mph 1017.3mb 73f 71f
12:18 6 8 mph 1017.3mb 73f 71f
12:12 3 5 mph 1017.5mb 73f 72f
12:06 2 3 mph 1017.5mb 73f 72f
12:00 3 3 mph 1017.6mb 73f 71f
11:54 3 3 mph 1017.7mb 73f 72f
11:48 2 3 mph 1017.8mb 73f 72f
11:42 1 3 mph 1017.8mb 73f 72f
11:36 3 6 mph 1017.8mb 73f 71f
11:30 2 2 mph 1017.9mb 73f 71f
11:24 1 3 mph 1017.9mb 73f 71f
11:18 2 3 mph 1018mb 73f 71f
11:12 3 3 mph 1018.1mb 73f 71f
11:06  -  2 mph 1018.1mb 73f 72f
11:00 1 3 mph 1018.1mb 72f 71f
10:54 2 3 mph 1018.1mb 72f 71f
10:48 2 5 mph 1018.2mb 72f 70f
10:42 3 5 mph 1018.2mb 72f 70f
10:36 5 6 mph 1018.2mb 72f 69f
10:30 5 6 mph 1018.1mb 72f 69f
10:24 5 7 mph 1018.1mb 71f 69f
10:18 6 7 mph 1018.2mb 71f 69f
10:12 5 6 mph 1018.3mb 72f 69f
10:06 3 7 mph 1018.3mb 72f 70f
10:00 6 8 mph 1018.3mb 72f 69f
9:54 7 8 mph 1018.4mb 73f 69f
9:48 6 7 mph 1018.4mb 73f 69f
9:42 6 8 mph 1018.3mb 73f 68f
9:36 5 6 mph 1018.3mb 73f 69f
9:30 5 7 mph 1018.3mb 73f 69f
9:24 5 6 mph 1018.2mb 73f 69f
9:18 5 7 mph 1018.2mb 73f 68f
9:12 6 7 mph 1018.2mb 73f 68f
9:06 5 6 mph 1018.2mb 73f 67f
9:00 3 5 mph 1018.2mb 73f 69f
8:54 3 6 mph 1018.1mb 73f 69f
8:48 5 6 mph 1018.1mb 73f 69f
8:42 5 6 mph 1018.2mb 73f 69f
8:36 6 7 mph 1018.1mb 73f 69f
8:30 5 6 mph 1018.1mb 73f 68f
8:24 5 6 mph 1018.2mb 73f 68f
8:18 6 7 mph 1018.1mb 73f 68f
8:12 6 7 mph 1018.2mb 73f 67f
8:06 6 8 mph 1018.3mb 73f 67f
8:00 8 9 mph 1018.3mb 73f 66f
7:54 6 7 mph 1018.3mb 73f 65f
7:48 6 7 mph 1018.3mb 73f 65f
7:42 6 9 mph 1018.2mb 73f 66f
7:36 6 8 mph 1018.1mb 73f 66f
7:30 6 8 mph 1018mb 73f 66f
7:24 7 9 mph 1018.1mb 73f 66f
7:18 7 8 mph 1018.1mb 73f 66f
7:12 7 8 mph 1017.9mb 73f 66f
7:06 7 8 mph 1017.9mb 73f 66f
7:00 7 8 mph 1017.8mb 73f 66f
6:54 7 8 mph 1017.8mb 73f 66f
6:48 7 9 mph 1017.7mb 73f 65f
6:42 8 10 mph 1017.7mb 73f 65f
6:36 9 10 mph 1017.6mb 73f 65f
6:30 9 10 mph 1017.6mb 73f 65f
6:24 8 9 mph 1017.5mb 73f 64f
6:18 8 10 mph 1017.4mb 73f 64f
6:12 8 9 mph 1017.3mb 73f 64f
6:06 8 9 mph 1017.3mb 73f 64f
6:00 8 9 mph 1017.3mb 73f 64f
5:54 7 9 mph 1017.2mb 73f 64f
5:48 7 9 mph 1017.1mb 73f 64f
5:42 8 9 mph 1017.1mb 73f 64f
5:36 8 9 mph 1017.1mb 73f 64f
5:30 7 8 mph 1017.1mb 73f 64f
5:24 6 8 mph 1017.1mb 73f 64f
5:18 7 8 mph 1017.1mb 73f 64f
5:12 6 9 mph 1017mb 73f 64f
5:06 7 9 mph 1016.9mb 73f 64f
5:00 7 9 mph 1016.8mb 73f 64f
4:54 8 10 mph 1016.8mb 73f 64f
4:48 8 10 mph 1016.9mb 73f 64f
4:42 9 10 mph 1016.9mb 73f 65f
4:36 8 10 mph 1016.9mb 73f 65f
4:30 9 11 mph 1016.9mb 73f 65f
4:24 10 11 mph 1016.8mb 73f 65f
4:18 10 11 mph 1016.7mb 72f 65f
4:12 9 11 mph 1016.7mb 72f 65f
4:06 9 11 mph 1016.7mb 71f 65f
4:00 10 13 mph 1016.7mb 71f 66f
3:54 10 13 mph 1016.6mb 71f 66f
3:48 10 14 mph 1016.6mb 71f 66f
3:42 11 16 mph 1016.5mb 71f 66f
3:36 13 14 mph 1016.5mb 71f 66f
3:30  -  mph 1016.3mb 71f 67f
3:24  -  mph 1016.3mb 71f 67f
3:18  -  mph 1016.3mb 71f 67f
3:12 10 13 mph 1016.4mb 71f 67f
3:06 10 13 mph 1016.4mb 71f 67f
3:00 10 11 mph 1016.4mb 71f 68f
2:54 8 9 mph 1016.4mb 71f 67f
2:48 8 8 mph 1016.4mb 71f 67f
2:42 7 9 mph 1016.4mb 71f -
2:36 7 8 mph 1016.4mb 71f -
2:30 7 8 mph 1016.5mb 71f 68f
2:24 7 8 mph 1016.5mb 72f 68f
2:18 7 8 mph 1016.5mb 72f 68f
2:12 6 8 mph 1016.5mb 72f 68f
2:06 8 9 mph 1016.5mb 72f 68f
2:00 5 7 mph 1016.5mb 72f 68f
1:54 5 7 mph 1016.4mb 73f 68f
1:48 6 8 mph 1016.3mb 73f 68f
1:42 6 7 mph 1016.3mb 73f 69f
1:36 6 7 mph 1016.4mb 73f 69f
1:30 6 8 mph 1016.3mb 74f 69f
1:24 7 8 mph 1016.4mb 74f 69f
1:18 7 9 mph 1016.4mb 74f 69f
1:12 8 9 mph 1016.5mb 74f 68f
1:06 8 8 mph 1016.4mb 74f 68f
1:00 7 8 mph 1016.4mb 74f 69f
12:54 7 9 mph 1016.4mb 74f 69f
12:48 7 9 mph 1016.3mb 75f 69f
12:42 7 11 mph 1016.3mb 75f 69f
12:36 8 11 mph 1016.2mb 75f 69f
12:30 8 13 mph 1016.2mb 75f 69f
12:24 9 11 mph 1016.2mb 75f 69f
12:18 9 10 mph 1016.3mb 75f 70f
12:12 8 9 mph 1016.3mb 75f 70f
12:06 8 11 mph 1016.2mb 75f 69f
12:00 10 11 mph 1016.2mb 75f 70f
mié 08/16 11:54 8 10 mph 1016.1mb 75f 70f
11:48 8 9 mph - - -
11:42 7 10 mph 1015.9mb 75f 70f
11:36 7 9 mph 1015.9mb 75f 70f
11:30 7 11 mph 1015.8mb 75f 71f
11:24 7 10 mph 1015.7mb 75f 71f
11:18 8 10 mph 1015.6mb 75f 72f
11:12 8 9 mph 1015.6mb 75f 72f
11:06 8 9 mph 1015.6mb 75f 72f
11:00 7 8 mph 1015.6mb 75f 72f
10:54 6 7 mph 1015.7mb 75f 72f
10:48 6 7 mph 1015.7mb - -
10:42 6 7 mph 1015.7mb 75f 73f
10:36 6 7 mph 1015.6mb 75f 73f
10:30 7 8 mph 1015.5mb 75f 73f
10:24 7 9 mph 1015.5mb 75f 73f
10:18 7 10 mph 1015.4mb - -
10:12 9 10 mph 1015.4mb 75f 74f
10:06 9 11 mph 1015.4mb 75f 74f
10:00 10 13 mph 1015.4mb 75f 74f
9:54 8 13 mph 1015.3mb 75f 74f
9:48 8 11 mph 1015.3mb - -
9:42 5 8 mph 1015.2mb 75f 74f
9:36 6 6 mph 1015.1mb 75f 74f
9:30 2 5 mph 1015mb 75f 74f
9:24 3 5 mph 1014.9mb 75f 74f
9:18 5 5 mph - - -
9:12 3 5 mph 1014.7mb 75f 74f
9:06 3 3 mph 1014.7mb 75f 74f
9:00 3 5 mph 1014.7mb 75f 75f
8:54 5 6 mph 1014.6mb 75f 75f
8:48 3 6 mph - - -
8:42 6 7 mph 1014.6mb 76f 75f
8:36 6 8 mph 1014.5mb 76f 75f
8:30 7 7 mph 1014.5mb 76f 75f
8:24 2 3 mph 1014.4mb 76f 77f
8:18 2 3 mph - - -
8:12 2 3 mph 1014.2mb 76f 77f
8:06 2 3 mph 1014.1mb 76f 77f
8:00 1 3 mph 1014.1mb 76f 78f
7:54 3 3 mph 1014mb 76f 78f
7:48 3 5 mph 1014mb - -
7:42 5 6 mph 1013.9mb 76f 78f
7:36 6 6 mph 1013.8mb 76f 78f
7:30 6 8 mph 1013.7mb 76f 78f
7:24 6 8 mph 1013.7mb 76f 79f
7:18 7 8 mph - - -
7:12 7 9 mph 1013.6mb 76f 79f
7:06 8 11 mph 1013.6mb 76f 80f
7:00 10 11 mph 1013.5mb 76f 80f
6:54 8 11 mph 1013.3mb 76f 79f
6:48 11 11 mph 1013.2mb - -
6:42 11 13 mph 1013.2mb 76f 80f
6:36 10 11 mph 1013.2mb 76f 81f
6:30 11 13 mph 1013.1mb 76f 81f
6:24 11 13 mph 1013.1mb 76f 81f
6:18 11 13 mph 1013mb 76f 80f
6:12 10 14 mph 1012.9mb 76f 81f
6:06 13 15 mph 1013mb 76f 81f
6:00 9 10 mph 1012.9mb 76f 82f
5:54 9 11 mph 1012.8mb 76f 82f
5:48 11 14 mph 1012.7mb - -
5:42 14 15 mph 1012.7mb 76f 81f
5:36 8 10 mph 1012.7mb 76f 81f
5:30 7 14 mph 1012.7mb 76f 83f
5:24 13 15 mph 1012.6mb 76f 82f
5:18 13 15 mph 1012.5mb 76f 82f
5:12 13 14 mph 1012.5mb 76f 81f
5:06 10 13 mph 1012.6mb 76f 82f
5:00 9 13 mph 1012.5mb 76f 83f
4:54 14 15 mph 1012.5mb 76f 82f
4:48 13 14 mph 1012.5mb 76f 82f
4:42 13 15 mph 1012.5mb 76f 82f
4:36 10 13 mph 1012.5mb 75f 82f
4:30 9 11 mph 1012.4mb 75f 82f
4:24 11 13 mph 1012.4mb 75f 82f
4:18 11 14 mph 1012.4mb 75f 82f
4:12 9 13 mph 1012.5mb 74f 82f
4:06 13 15 mph 1012.5mb 74f 82f
4:00 15 16 mph 1012.5mb 74f 81f
3:54 9 13 mph 1012.6mb 73f 82f
3:48 11 16 mph 1012.6mb 74f 81f
3:42 15 18 mph 1012.6mb 74f 81f
3:36 14 16 mph 1012.7mb 74f 82f
3:30 6 10 mph 1012.7mb 73f 83f
3:24 10 13 mph 1012.7mb 72f 82f
3:18 13 16 mph 1012.7mb 71f 81f
3:12 13 15 mph 1012.7mb 71f 81f
3:06 9 10 mph 1012.7mb 71f 80f
3:00 7 11 mph 1012.8mb 71f 81f
2:54 7 8 mph 1012.9mb 71f 81f
2:48 8 11 mph 1012.9mb 72f 81f
2:42 10 15 mph 1012.9mb 72f 81f
2:36 10 13 mph 1012.9mb 72f 79f
2:30 13 14 mph 1012.9mb 72f 80f
2:24 11 14 mph 1012.9mb 73f 80f
2:18 10 14 mph 1012.9mb 73f 80f
2:12 13 14 mph 1012.9mb 73f 80f
2:06 13 15 mph 1013mb 74f 80f
2:00 9 13 mph 1013mb 74f 79f
1:54 10 13 mph 1013mb 74f 79f
1:48 11 13 mph 1013mb 74f 80f
1:42 11 14 mph 1013mb 74f 79f
1:36 10 13 mph 1013mb 74f 79f
1:30 11 13 mph 1013.1mb 74f 78f
1:24 11 14 mph 1013.1mb 73f 79f
1:18 10 13 mph 1013.1mb 73f 79f
1:12 10 14 mph 1013.1mb 73f 80f
1:06 11 13 mph 1013.1mb 73f 79f
1:00 11 14 mph 1013.1mb 73f 79f
12:54 11 14 mph 1013.1mb 73f 79f
12:48 14 16 mph 1013.1mb 73f 78f
12:42 9 13 mph 1013.1mb 73f 79f
12:36 10 14 mph 1013mb 74f 79f
12:30 11 15 mph 1013mb 74f 79f
12:24 10 14 mph 1013mb 74f 79f
12:18 10 14 mph 1013.1mb 74f 79f
12:12 11 14 mph 1013mb 74f 78f
12:06 13 17 mph 1013mb 74f 78f
12:00 13 15 mph 1012.9mb 74f 78f
11:54 15 20 mph 1012.8mb 74f 78f
11:48 15 17 mph 1012.8mb 74f 78f
11:42 13 16 mph 1012.8mb 74f 78f
11:36 9 15 mph 1012.8mb 74f 78f
11:30 14 16 mph 1012.9mb 74f 78f
11:24 10 18 mph 1012.9mb 74f 78f
11:18 11 15 mph 1012.9mb 74f 78f
11:12 14 16 mph 1012.9mb 73f 77f
11:06 13 15 mph 1012.9mb 74f 77f
11:00 10 14 mph 1012.9mb 74f 77f
10:54 11 15 mph 1012.9mb 74f 77f
10:48 13 18 mph 1012.8mb 74f 77f
10:42 13 15 mph 1012.9mb 73f 76f
10:36 13 17 mph 1013mb 73f 76f
10:30 13 17 mph 1012.9mb 73f 76f
10:24 11 17 mph 1012.9mb 74f 76f
10:18 13 14 mph 1012.9mb 73f 75f
10:12 13 16 mph 1012.9mb 73f 75f
10:06 14 16 mph 1012.9mb 73f 75f
10:00 14 15 mph 1012.8mb 73f 75f
9:54 14 15 mph 1013mb 73f 75f
9:48 14 15 mph 1013mb 73f 74f
9:42 11 13 mph 1013mb 73f 74f
9:36 10 14 mph 1013mb 73f 74f
9:30 11 13 mph 1013mb 73f 73f
9:24 13 14 mph 1012.9mb 73f 73f
9:18 13 14 mph 1012.9mb 73f 73f
9:12 11 14 mph 1012.9mb 73f 73f
9:06 11 13 mph 1012.9mb 73f 73f
9:00 11 14 mph 1012.8mb 73f 72f
8:54 13 15 mph 1012.8mb 73f 72f
8:48 13 15 mph 1012.8mb 73f 72f
8:42 13 15 mph 1012.9mb 73f 72f
8:36 14 15 mph 1012.9mb 73f 72f
8:30 10 13 mph 1012.9mb 73f 72f
8:24 11 13 mph 1012.8mb 73f 71f
8:18 7 8 mph 1012.9mb 73f 70f
8:12 6 7 mph 1012.9mb 73f 70f
8:06 7 8 mph 1013mb 73f 70f
8:00 7 8 mph 1012.9mb 73f 70f
7:54 6 6 mph 1013mb 73f 69f
7:48 5 6 mph 1013.1mb 73f 70f
7:42 5 6 mph 1013.1mb 73f 70f
7:36 6 7 mph 1013mb 73f 70f
7:30 6 7 mph 1013.1mb 73f 69f
7:24 5 6 mph 1013.1mb 73f 69f
7:18 3 5 mph 1013mb 73f 68f
7:12 3 5 mph 1013mb 73f 68f
7:06 5 6 mph 1013mb 73f 68f
7:00 5 6 mph 1012.9mb 73f 68f
6:54 5 6 mph 1012.9mb 73f 68f
6:48 3 6 mph 1012.9mb 73f 68f
6:42 5 6 mph 1012.8mb 73f 68f
6:36 6 7 mph 1012.7mb 73f 68f
6:30 6 7 mph 1012.7mb 73f 68f
6:24 6 7 mph 1012.7mb 73f 67f
6:18 5 6 mph 1012.7mb 73f 67f
6:12 3 5 mph 1012.7mb 73f 67f
6:06 5 5 mph 1012.7mb 73f 67f
6:00 3 5 mph 1012.6mb 73f 67f
5:54 3 5 mph 1012.6mb 73f 67f
5:48 3 5 mph 1012.5mb 73f 67f
5:42 5 6 mph 1012.5mb 73f 67f
5:36 5 6 mph 1012.4mb 73f 67f
5:30 5 6 mph 1012.3mb 73f 67f
5:24 5 7 mph 1012.2mb 73f 68f
5:18 6 8 mph 1012.2mb 73f 67f
5:12 7 7 mph 1012.3mb 73f 68f
5:06 6 6 mph 1012.3mb 73f 68f
5:00 3 6 mph 1012.3mb 73f 68f
4:54 3 6 mph 1012.2mb 73f 68f
4:48 3 5 mph 1012.2mb 73f 68f
4:42 3 5 mph 1012.3mb 73f 68f
4:36 5 6 mph 1012.2mb 73f 68f
4:30 6 7 mph 1012.3mb 73f 68f
4:24 5 7 mph 1012.3mb 73f 68f
4:18 6 7 mph 1012.3mb 73f 68f
4:12 6 7 mph 1012.3mb 73f 68f
4:06 6 7 mph 1012.3mb 73f 68f
4:00 7 8 mph 1012.3mb 73f 68f
3:54 6 7 mph 1012.3mb 73f 68f
3:48 6 7 mph 1012.3mb 73f 68f
3:42 6 8 mph 1012.2mb 73f 68f
3:36 6 7 mph 1012.3mb 73f 68f
3:30 6 7 mph 1012.4mb 73f 67f
3:24 5 7 mph 1012.4mb 73f 67f
3:18 3 6 mph 1012.4mb 73f 67f
3:12 5 6 mph 1012.5mb 73f 67f
3:06 6 7 mph 1012.6mb 73f 67f
3:00 5 7 mph 1012.5mb 73f 67f
2:54 6 8 mph 1012.6mb 73f 67f
2:48 7 8 mph - - -
2:42 6 7 mph 1012.5mb 73f 67f
2:36 6 6 mph 1012.4mb 73f 67f
2:30 5 7 mph 1012.3mb 73f 67f
2:24 6 7 mph 1012.3mb 73f 67f
2:18 7 8 mph 1012.2mb 73f 67f
2:12 6 7 mph 1012.1mb 73f 67f
2:06 6 7 mph 1012mb 73f 67f
2:00 7 8 mph 1012mb 73f 67f
1:54 5 6 mph 1012.1mb 73f 68f
1:48 3 6 mph 1012.1mb 73f 68f
1:42 5 7 mph 1012.1mb 73f 68f
1:36 6 7 mph 1011.9mb 73f 68f
1:30 6 7 mph 1011.9mb 73f -
1:24 5 6 mph 1012mb 73f 68f
1:18 5 6 mph 1011.9mb 73f 68f
1:12 6 8 mph 1012mb 73f 68f
1:06 5 8 mph 1012mb 73f 68f
1:00 5 8 mph 1012.1mb 73f 68f
12:54 6 7 mph 1011.9mb 73f 68f
12:48 7 8 mph 1012mb 73f 68f
12:42 5 8 mph 1012.2mb 73f 69f
12:36 8 8 mph 1012mb 73f 69f
12:30 7 8 mph 1011.9mb 73f 68f
12:24 5 7 mph 1011.8mb 73f 69f
12:18 7 9 mph 1011.8mb 73f 68f
12:12 6 7 mph 1011.8mb 73f 68f
12:06 6 7 mph 1011.8mb 73f 68f
12:00 6 7 mph 1012mb 73f 68f
mar 08/15 11:54 6 8 mph 1012mb 73f 69f
11:48 6 7 mph - - -
11:42 6 7 mph 1012mb 73f 69f
11:36 6 7 mph 1012mb 73f 68f
11:30  -  mph 1012.1mb 73f 69f
11:24  -  mph 1012.1mb 73f 68f
11:18  -  mph 1012.1mb 74f 69f
11:12 3 6 mph 1012.2mb 74f 69f
11:06 3 5 mph 1012.3mb 74f 69f
11:00 3 5 mph 1012.3mb 74f 69f
10:54 2 5 mph 1012.3mb 74f 69f
10:48 3 5 mph - - -
10:42 1 3 mph 1012.5mb 74f 69f
10:36 2 5 mph 1012.6mb 74f 69f
10:30 2 3 mph 1012.6mb 74f 69f
10:24 2 6 mph 1012.7mb 74f 69f
10:18 6 6 mph 1012.7mb - -
10:12 6 7 mph 1012.7mb 74f 69f
10:06 6 6 mph 1012.5mb 73f 69f
10:00 6 9 mph 1012.5mb 73f 69f
9:54 7 9 mph 1012.5mb 73f 69f
9:48 7 8 mph - - -
9:42 8 11 mph 1012.7mb 73f 69f
9:36 9 10 mph 1012.6mb 73f 69f
9:30 9 11 mph 1012.7mb 73f 69f
9:24 9 11 mph 1012.7mb 73f 69f
9:18 11 13 mph - - -
9:12 10 13 mph 1012.8mb 73f 70f
9:06 9 11 mph 1012.9mb 73f 70f
9:00 9 11 mph 1013mb 73f 70f
8:54 10 11 mph 1013mb 73f 70f
8:48 10 13 mph - - -
8:42 13 14 mph 1012.8mb 73f 70f
8:36 11 13 mph 1012.7mb 73f 70f
8:30 9 10 mph 1012.8mb 73f 70f
8:24 10 11 mph 1012.8mb 73f 70f
8:18 10 13 mph 1012.9mb 73f 70f
8:12 10 11 mph 1012.9mb 73f 70f
8:06 9 10 mph 1013mb 73f 70f
8:00 8 11 mph 1013.1mb - -
7:54 10 13 mph 1013.1mb 73f 70f
7:48 9 11 mph 1013mb 73f -
7:42 8 11 mph 1013.1mb 73f 70f
7:36 10 13 mph 1013.1mb 73f 70f
7:30 11 14 mph 1012.9mb 73f 71f
7:24 13 15 mph 1013.1mb 73f 71f
7:18 13 15 mph 1013.1mb - -
7:12 14 15 mph 1013mb 73f 71f
7:06 13 16 mph 1013mb 73f 71f
7:00 14 15 mph 1013.1mb 73f 71f
6:54 14 15 mph 1013mb 73f 70f
6:48 15 15 mph 1013.2mb 73f -
6:42 13 15 mph 1013.3mb 73f 70f
6:36 14 15 mph 1013.2mb 73f 70f
6:30 11 14 mph 1013.3mb 73f 70f
6:24 10 11 mph 1013.1mb 73f 70f
6:18 10 10 mph - - -
6:12 10 13 mph 1013mb 73f 70f
6:06 11 14 mph 1012.8mb 73f 70f
6:00 13 15 mph 1013mb - -
5:54 15 17 mph 1013.1mb 73f 70f
5:48 15 17 mph 1013mb - -
5:42 14 15 mph 1012.9mb 73f 70f
5:36 14 16 mph 1012.8mb 73f 70f
5:30 14 16 mph 1012.8mb 74f 70f
5:24 14 15 mph 1012.7mb 74f 71f
5:18 14 15 mph 1012.9mb 74f 70f
5:12 14 14 mph 1012.8mb 74f 70f
5:06 13 15 mph 1012.8mb 74f 70f
5:00 14 15 mph 1012.8mb 74f 70f
4:54 14 15 mph 1012.7mb 74f 71f
4:48 14 16 mph 1012.7mb 74f 71f
4:42 15 16 mph 1012.6mb 74f 71f
4:36 14 16 mph 1012.7mb 74f 71f
4:30 14 15 mph 1012.8mb 74f 71f
4:24 13 14 mph 1012.9mb 74f 71f
4:18 14 15 mph 1013mb 74f 71f
4:12 15 16 mph 1012.9mb 74f 72f
4:06 15 16 mph 1013mb 74f 72f
4:00 14 16 mph 1013.1mb 74f 72f
3:54 15 18 mph 1013mb 73f 71f
3:48 16 18 mph 1013mb 74f 71f
3:42 14 16 mph 1012.9mb 74f 72f
3:36 14 15 mph 1013mb 74f 72f
3:30 15 16 mph 1013mb 73f 72f
3:24 15 17 mph 1013.1mb 73f 72f
3:18 16 18 mph 1013.2mb 73f 72f
3:12 16 20 mph 1013.1mb 73f 72f
3:06 17 20 mph 1013.2mb 73f 72f
3:00 16 17 mph 1013.1mb 73f 72f
2:54 16 18 mph 1013.1mb 73f 72f
2:48 17 18 mph 1013mb 73f 73f
2:42 16 17 mph 1013mb 72f 73f
2:36 17 21 mph 1012.9mb 72f 73f
2:30 20 21 mph 1012.9mb 72f 73f
2:24 17 20 mph 1012.9mb 71f 73f
2:18 17 20 mph 1013mb 71f 73f
2:12  -  mph 1013mb - 74f
2:06  -  mph 1013.1mb - 74f
2:00 20 22 mph 1013.1mb - -
1:54 18 21 mph 1013.2mb - -
1:48 16 18 mph 1013.1mb - -
1:42  -  mph 1013.1mb - 74f
1:36  -  mph 1013.2mb - 74f
10:06 7 9 mph - 73f -
10:00  -  mph - 73f 71f
9:54  -  mph - 73f 71f
9:48 9 10 mph - 73f 71f
9:42 9 10 mph 1014.5mb 73f 71f
9:36 9 11 mph 1014.4mb 73f 71f
9:30 10 11 mph 1014.4mb 73f 70f
9:24 11 11 mph 1014.4mb 73f 70f
9:18 10 13 mph 1014.4mb 73f 70f
9:12 10 13 mph 1014.4mb 73f 71f
9:06 10 11 mph 1014.3mb 73f 71f
9:00 7 8 mph 1014.3mb 72f 71f
8:54 7 8 mph 1014.3mb 72f 71f
8:48 6 7 mph 1014.3mb 72f 71f
8:42 5 6 mph 1014.3mb 72f 71f
8:36 5 7 mph 1014.3mb 72f 70f
8:30 6 6 mph 1014.3mb 73f 70f
8:24 3 5 mph 1014.3mb 73f 70f
8:18 3 6 mph 1014.3mb 73f 70f
8:12 2 3 mph 1014.3mb 73f 70f
8:06 2 3 mph 1014.3mb 73f 70f
8:00 3 5 mph 1014.3mb 73f 70f
7:54 5 6 mph 1014.4mb 73f 70f
7:48 5 6 mph 1014.5mb 73f 69f
7:42 5 6 mph 1014.5mb 73f 69f
7:36 5 7 mph 1014.4mb 73f 69f
7:30 6 7 mph 1014.6mb 74f 70f
7:24 6 8 mph 1014.5mb 74f 69f
7:18 6 7 mph 1014.3mb 74f 69f
7:12 6 7 mph 1014.3mb 74f 70f
7:06 6 8 mph 1014.3mb 74f 69f
7:00 7 8 mph 1014.4mb 74f 70f
6:54 7 9 mph 1014.4mb 74f 70f
6:48 8 10 mph 1014.4mb 74f 70f
6:42 7 9 mph 1014.4mb 74f 70f
6:36 8 10 mph 1014.4mb 74f 70f
6:30 7 10 mph 1014.4mb 74f 70f
6:24 9 10 mph 1014.5mb 74f 70f
6:18 8 9 mph 1014.5mb 74f 70f
6:12 6 7 mph 1014.3mb 74f 70f
6:06 6 7 mph 1014.3mb 74f 70f
6:00 5 7 mph 1014.3mb 73f 69f
5:54 5 6 mph 1014.3mb 73f 69f
5:48 6 7 mph 1014.4mb 73f 69f
5:42 6 7 mph 1014.4mb 73f 69f
5:36 6 7 mph 1014.5mb 74f 69f
5:30 5 7 mph 1014.4mb 74f 69f
5:24 7 8 mph 1014.5mb 74f 69f
5:18 8 10 mph 1014.5mb 74f 69f
5:12 8 10 mph 1014.4mb 74f 69f
5:06 8 8 mph 1014.3mb 74f 69f
5:00 6 7 mph 1014.3mb 74f 70f
4:54 6 7 mph 1014.4mb 74f 70f
4:48 6 8 mph 1014.3mb 74f 69f
4:42 6 9 mph 1014.4mb 74f 69f
4:36 9 10 mph 1014.6mb 74f 69f
4:30 8 9 mph 1014.7mb 74f 70f
4:24 6 8 mph 1014.4mb 74f 69f
4:18 7 8 mph 1014.3mb 74f 69f
4:12 6 7 mph 1014.5mb 74f 69f
4:06 5 6 mph 1014.4mb 74f 69f
4:00 5 6 mph 1014.3mb 74f 69f
3:54 3 5 mph 1014.5mb 74f 69f
3:48 2 3 mph 1014.4mb 73f 69f
3:42 2 3 mph 1014.3mb 73f 69f
3:36 3 5 mph 1014.3mb 73f 69f
3:30 3 3 mph 1014.2mb 73f 69f
3:24 2 3 mph 1014.2mb 73f 69f
3:18 3 5 mph 1014.2mb 73f 69f
3:12 3 6 mph 1014.3mb 73f 69f
3:06 5 6 mph 1014.2mb 73f 69f
3:00 5 6 mph 1014.2mb 73f 69f
2:54 5 6 mph 1014.3mb 73f 69f
2:48 3 3 mph 1014.1mb 73f -
2:42 2 5 mph 1014.1mb 73f -
2:36 5 5 mph 1014.2mb 72f -
2:30 5 5 mph 1014.4mb 72f 69f
2:24 3 5 mph 1014.3mb 72f 69f
2:18 3 5 mph 1014.3mb 72f 69f
2:12 3 3 mph 1014.3mb 72f 69f
2:06 2 3 mph 1014.2mb 72f 69f
2:00 2 3 mph 1014.4mb 72f 69f
1:54 2 2 mph 1014.3mb 72f 69f
1:48 3 5 mph 1014.4mb 72f 70f
1:42 5 5 mph 1014.4mb 72f 70f
1:36 5 6 mph 1014.5mb 72f 70f
1:30 6 6 mph 1014.5mb 72f 70f
1:24 5 6 mph 1014.5mb 72f 70f
1:18 5 6 mph 1014.5mb 72f 70f
1:12 5 6 mph 1014.6mb 72f 70f
1:06 5 6 mph 1014.6mb 71f 70f
1:00 5 6 mph 1014.7mb 71f 70f
12:54 5 6 mph 1014.7mb 71f 70f
12:48 5 5 mph 1014.7mb 71f 70f
12:42 3 5 mph 1014.8mb 71f 70f
12:36 5 5 mph 1014.8mb 71f 70f
12:30 3 5 mph 1014.9mb 71f 70f
12:24 3 5 mph 1014.9mb 71f 70f
12:18 5 5 mph 1014.9mb 71f 70f
12:12 3 5 mph 1015mb 71f 70f
12:06 3 6 mph 1015.1mb 71f 70f
12:00 6 7 mph 1015.1mb 72f 70f
lun 08/14 11:54 6 7 mph 1015mb 72f 71f
11:48 7 7 mph 1015mb 72f 71f
11:42 6 8 mph 1015mb 72f 71f
11:36 7 8 mph 1015mb 74f 70f
11:30 7 8 mph 1015mb 74f 71f
11:24 6 7 mph 1015mb 74f 70f
11:18 6 7 mph 1015.1mb 74f 71f
11:12 6 9 mph 1015.1mb 74f 71f
11:06 8 9 mph 1015.1mb 74f 71f
11:00 7 8 mph 1015.2mb 74f 71f
10:54 7 8 mph 1015.2mb 74f 71f
10:48 6 8 mph 1015.2mb 74f 71f
10:42 8 9 mph 1015.3mb 74f 71f
10:36 6 7 mph 1015.3mb 74f 71f
10:30 6 7 mph 1015.3mb 75f 71f
10:24 7 8 mph 1015.4mb 75f 71f
10:18 8 9 mph 1015.4mb - -
10:12 7 9 mph 1015.3mb 75f 70f
10:06 9 10 mph 1015.4mb 75f 71f
10:00 9 9 mph 1015.5mb 75f 71f
9:54 8 8 mph 1015.4mb 75f 71f
9:48 7 7 mph 1015.4mb 75f 71f
9:42 6 7 mph 1015.3mb 75f 71f
9:36 7 8 mph 1015.3mb 75f 71f
9:30 7 8 mph 1015.4mb 75f 71f
9:24 7 8 mph 1015.4mb 75f 71f
9:18 8 9 mph 1015.3mb 75f 71f
9:12 8 9 mph 1015.3mb 75f 71f
9:06 8 9 mph 1015.4mb 75f 71f
9:00 8 9 mph 1015.3mb 75f 71f
8:54 8 9 mph 1015.2mb 75f 71f
8:48 9 10 mph 1015.2mb 75f 71f
7:54 8 8 mph 1015.3mb 74f 72f
7:48 7 8 mph 1015.4mb 74f 73f
7:42 7 8 mph 1015.2mb 74f 73f
7:36 7 8 mph 1015.1mb 74f 73f
7:30 7 8 mph 1015.1mb 74f 73f
7:24 8 8 mph 1015mb 74f 73f
7:18 8 8 mph - - -
7:12 8 9 mph 1015.2mb 74f 73f
7:06 8 9 mph 1015.2mb 74f 73f
7:00 8 9 mph 1015.1mb 74f 73f
6:54 8 9 mph 1015.2mb 75f 73f
6:48 8 9 mph 1015.2mb 75f 74f
6:42 8 9 mph 1015.1mb 75f 74f
6:36 9 10 mph 1015.1mb 76f 74f
6:30 10 10 mph 1015.2mb 76f 74f
6:24 9 9 mph 1015.2mb 76f 74f
6:18 8 9 mph 1015.1mb 76f 74f
6:12 8 10 mph 1015.1mb 76f 74f
6:06 9 10 mph 1015.2mb 76f 74f
6:00 10 10 mph 1015.2mb 76f 74f
5:54 9 10 mph 1015.2mb 75f 74f
5:48 9 10 mph 1015.2mb 75f 74f
5:42 9 11 mph 1015.3mb 75f 74f
5:36 10 11 mph 1015.3mb 75f 74f
5:30 11 11 mph 1015.3mb 75f 74f
5:24 10 11 mph 1015.3mb 75f 74f
5:18 9 10 mph 1015.4mb 75f 74f
5:12 9 10 mph 1015.5mb 75f 74f
5:06 9 10 mph 1015.5mb 75f 74f
5:00 8 9 mph 1015.5mb 75f 74f
4:54 8 9 mph 1015.6mb 75f 74f
4:48 8 9 mph 1015.6mb 74f 74f
4:42 8 9 mph 1015.6mb 75f 74f
4:36 9 10 mph 1015.7mb 75f 75f
4:30 9 9 mph 1015.7mb 74f 74f
4:24 8 9 mph 1015.7mb 74f 74f
4:18 8 9 mph 1015.8mb 74f 74f
4:12 8 9 mph 1015.8mb 74f 74f
4:06 9 9 mph 1015.9mb 74f 74f
4:00 8 9 mph 1015.9mb 74f 74f
3:54 7 8 mph 1015.9mb 74f 74f
3:48 8 8 mph 1016mb 74f 75f
3:42 8 8 mph 1016mb 74f 75f
3:36 8 9 mph 1016.1mb 74f 75f
3:30 8 9 mph 1016.2mb 74f 75f
3:24 8 9 mph 1016.3mb 74f 75f
3:18 9 10 mph 1016.3mb 73f 75f
3:12 8 10 mph 1016.4mb 73f 75f
3:06 8 10 mph 1016.4mb 73f 75f
3:00 8 9 mph 1016.4mb 73f 75f
2:54 8 9 mph 1016.4mb 72f 75f
2:48 8 9 mph 1016.4mb 72f 75f
2:42 9 10 mph 1016.4mb 72f 75f
2:36 10 11 mph 1016.4mb 71f 75f
2:30 10 13 mph 1016.4mb 71f 75f
2:24 11 13 mph 1016.4mb 71f 75f
2:18 11 13 mph 1016.4mb 72f 75f
2:12 11 11 mph 1016.5mb 73f 75f
2:06 9 10 mph 1016.5mb 73f 75f
2:00 9 11 mph 1016.4mb 73f 74f
1:54 10 11 mph 1016.5mb 73f 74f
1:48 11 13 mph 1016.5mb 72f 74f
1:42 11 11 mph 1016.5mb 72f 74f
1:36 10 10 mph 1016.5mb 72f 74f
1:30 10 10 mph 1016.5mb 72f 74f
1:24 9 10 mph 1016.5mb 71f 75f
1:18 10 11 mph 1016.6mb 71f 75f
1:12 8 10 mph 1016.8mb 71f 75f
1:06 9 10 mph 1016.9mb 71f 76f
1:00 9 9 mph 1017mb 71f 76f
12:54 8 10 mph 1017.1mb 71f 76f
12:48 9 10 mph 1017.2mb 71f 76f
12:42 7 8 mph 1017.2mb 71f 76f
12:36 5 6 mph 1017.2mb 72f 76f
12:30 3 3 mph 1017.3mb 72f 77f
12:24 3 5 mph 1017.2mb 72f 77f
12:18 3 5 mph 1017.3mb 72f 77f
12:12 5 6 mph 1017.4mb 72f 76f
12:06 3 5 mph 1017.5mb 72f 76f
12:00 3 3 mph 1017.5mb 72f 76f
11:54 3 3 mph 1017.5mb 72f 76f
11:48  -  mph 1017.5mb 72f 76f
11:42  -  mph 1017.6mb 72f 76f
11:36  -  mph 1017.6mb 72f 75f
11:30 2 3 mph 1017.7mb 72f 74f
11:24 2 3 mph 1017.8mb 72f 74f
11:18 2 3 mph 1017.7mb 72f 74f
11:12 3 3 mph 1017.7mb 72f 74f
11:06 3 3 mph 1017.7mb 72f 73f
11:00 2 3 mph 1017.7mb 72f 73f
10:54 2 3 mph 1017.5mb 72f 73f
10:48 2 2 mph 1017.5mb 72f 72f
10:42 2 3 mph 1017.5mb 72f 72f
10:36 2 3 mph 1017.6mb 72f 72f